カタログに戻る

THORAD AGENA D DEB

運用中SSO
NORAD 5691·DEBRIS·🇺🇸 United States

打ち上げ Apr 8, 1970 から Vandenberg Space Force Base

Loading…

次のパス (今後24時間)

TLE

最新Source: Space-Track

元期: Sep 14, 2026, 15:51 UTC

1 05691U 70025LW  26257.66104651  .00001266  00000-0  74816-3 0  9990
2 05691  98.8880 329.8459 0032623   0.4747 359.6449 14.09312221842270

AllMySatでTHORAD AGENA D DEBをリアルタイム追跡

Download on the App Store